Clyde, Nunavut

4:55 AM ADT on April 22, 2018 (GMT -0300)
Clyde

Weather History for CYCY - October, 2013

Change the Weather History Date:

Saturday, October 26, 2013

  Actual Average Record
Temperature  
Mean Temperature 12 °F -  
Max Temperature 14 °F 9 °F 33 °F (2006)
Min Temperature 10 °F -3 °F 1 °F (2014)
Degree Days  
Heating Degree Days 53    
Moisture  
Dew Point 10 °F    
Average Humidity 86    
Maximum Humidity 92    
Minimum Humidity 76    
Precipitation  
Precipitation 0.00 in 0.03 in - ()
Sea Level Pressure  
Sea Level Pressure 29.59 in    
Wind  
Wind Speed 10 mph ()    
Max Wind Speed 26 mph    
Max Gust Speed 32 mph    
Visibility 6.2 miles    
Events Rain , Snow    
Averages and records for this station are not official NWS values.
T = Trace of Precipitation, MM = Missing Value Source: Averaged Metar Reports

Daily Weather History Graph

Daily Weather History Graph

Search for Another Location

Airport or City:

Astronomy

Oct. 26, 2013 Rise Set
Actual Time 9:41 AM ADT 4:52 PM ADT
Civil Twilight 8:30 AM ADT 6:04 PM ADT
Nautical Twilight 7:15 AM ADT 7:18 PM ADT
Astronomical Twilight 6:03 AM ADT 8:30 PM ADT
Moon 10:37 PM ADT (10/26) 4:32 PM ADT (10/26)
Length of Visible Light 9h 34m
Length of Day
7h 11m
Waning Gibbous, 53% of the Moon is Illuminated
Oct 26
Waning Gibbous
Oct 26
Last Quarter
Nov 3
New
Nov 10
First Quarter
Nov 17
Full

Hourly Weather History & Observations

Time (ADT) Temp. Windchill Dew Point Humidity Pressure Visibility Wind Dir Wind Speed Gust Speed Precip Events Conditions
12:00 AM 13 °F - 11 °F 86% 29.60 in 10 mi WNW 5.8 mph - - Snow Light Snow
3:00 AM 14 °F - 12 °F 88% 29.59 in 4 mi WNW 10.4 mph - - Snow Light Snow
6:00 AM 14 °F - 11 °F 85% 29.59 in 4 mi WNW 10.4 mph - - Snow Light Snow
6:53 AM 14.0 °F 0.5 °F 10.4 °F 86% 29.59 in 6.0 mi WNW 11.5 mph - N/A Snow Light Snow
6:54 AM 14.0 °F 0.5 °F 10.4 °F 86% 29.59 in 6.0 mi WNW 11.5 mph - N/A Snow Light Snow
7:00 AM 14.0 °F 0.5 °F 10.4 °F 86% 29.59 in 6.0 mi WNW 11.5 mph - N/A Snow Light Snow
7:10 AM 14.0 °F 1.2 °F 10.4 °F 86% 29.59 in 5.0 mi WNW 10.4 mph - N/A Snow Light Snow
7:23 AM 14.0 °F 1.2 °F 10.4 °F 86% 29.59 in 6.0 mi WNW 10.4 mph - N/A Snow Light Snow
7:54 AM 14.0 °F 1.2 °F 10.4 °F 86% 29.59 in 5.0 mi WNW 10.4 mph - N/A Snow Light Snow
7:56 AM 14.0 °F 0.5 °F 10.4 °F 86% 29.59 in 4.0 mi WNW 11.5 mph - N/A Snow Light Snow
8:00 AM 12.2 °F -1.8 °F 10.4 °F 92% 29.59 in 4.0 mi WNW 11.5 mph - N/A Snow Light Snow
8:13 AM 12.2 °F -2.5 °F 10.4 °F 92% 29.59 in 6.0 mi WNW 12.7 mph - N/A Snow Light Snow
8:46 AM 12.2 °F -2.5 °F 10.4 °F 92% 29.59 in 5.0 mi WNW 12.7 mph - N/A Snow Light Snow
9:00 AM 12.2 °F -2.5 °F - N/A% 29.60 in 3.0 mi WNW 12.7 mph - N/A Snow Light Snow
10:00 AM 12.2 °F -2.5 °F 8.6 °F 85% 29.59 in 4.0 mi WNW 12.7 mph - N/A Snow Light Snow
10:56 AM 26.6 °F 11.1 °F 21.2 °F 80% 29.73 in 15.0 mi North 26.5 mph 32.2 mph N/A Rain , Snow Light Freezing Rain
11:00 AM 12.2 °F -1.8 °F 8.6 °F 85% 29.59 in 9.0 mi WNW 11.5 mph - N/A Snow Light Snow
12:00 PM 13 °F - 10 °F 84% 29.58 in 3 mi WNW 10.4 mph - - Snow Light Snow
12:00 PM 14.0 °F 0.5 °F 10.4 °F 86% 29.58 in 6.0 mi WNW 11.5 mph - N/A Snow Light Snow
1:00 PM 12.2 °F -3.7 °F 8.6 °F 85% 29.58 in 5.0 mi WNW 15.0 mph - N/A Snow Light Snow
2:00 PM 10.4 °F -6.0 °F 8.6 °F 92% 29.58 in 4.0 mi WNW 15.0 mph - N/A Snow Light Snow
3:00 PM 13 °F - 9 °F 76% 29.58 in 10 mi WNW 15.0 mph - - Snow Light Snow
3:00 PM 12.2 °F -3.1 °F 8.6 °F 85% 29.58 in 10.0 mi WNW 13.8 mph - N/A Snow Light Snow
4:00 PM 10.4 °F -5.4 °F 6.8 °F 85% 29.58 in 7.0 mi WNW 13.8 mph - N/A Snow Light Snow
5:00 PM 12.2 °F -5.8 °F 8.6 °F 85% 29.58 in 20.0 mi WNW 19.6 mph - N/A Snow Light Snow
6:00 PM 13 °F - 9 °F 76% 29.58 in 9 mi WNW 13.8 mph - - Snow Light Snow
6:00 PM 12.2 °F -2.5 °F 8.6 °F 85% 29.58 in 9.0 mi WNW 12.7 mph - N/A Snow Light Snow
7:00 PM 12.2 °F -1.8 °F 8.6 °F 85% 29.58 in 3.0 mi WNW 11.5 mph - N/A Snow Light Snow
7:02 PM 12.2 °F -1.8 °F 8.6 °F 85% 29.58 in 3.0 mi WNW 11.5 mph - N/A Snow Light Snow
7:33 PM 12.2 °F -1.0 °F 8.6 °F 85% 29.57 in 6.0 mi WNW 10.4 mph - N/A Snow Light Snow
8:00 PM 14.0 °F 1.2 °F 10.4 °F 86% 29.57 in 9.0 mi WNW 10.4 mph - N/A Snow Light Snow
8:10 PM 14.0 °F 1.2 °F 10.4 °F 86% 29.57 in 5.0 mi WNW 10.4 mph - N/A Snow Light Snow
8:21 PM 14.0 °F 1.2 °F 10.4 °F 86% 29.57 in 3.0 mi WNW 10.4 mph - N/A Snow Light Snow
8:26 PM 14.0 °F 1.2 °F 10.4 °F 86% 29.57 in 2.2 mi WNW 10.4 mph - N/A Snow Light Snow
8:35 PM 14.0 °F 1.2 °F 10.4 °F 86% 29.57 in 3.0 mi WNW 10.4 mph - N/A Snow Light Snow
8:37 PM 14.0 °F 2.0 °F 10.4 °F 86% 29.57 in 3.0 mi WNW 9.2 mph - N/A Snow Light Snow